EDT,Max TemperatureF,Mean TemperatureF,Min TemperatureF,Max Dew PointF,MeanDew PointF,Min DewpointF,Max Humidity, Mean Humidity, Min Humidity, Max Sea Level PressureIn, Mean Sea Level PressureIn, Min Sea Level PressureIn, Max VisibilityMiles, Mean VisibilityMiles, Min VisibilityMiles, Max Wind SpeedMPH, Mean Wind SpeedMPH, Max Gust SpeedMPH,PrecipitationIn, CloudCover, Events, WindDirDegrees
2012-10-1,66,59,51,54,51,49,94,81,54,29.85,29.69,29.64,10,10,9,10,5,17,0.04,5,Rain,224
2012-10-2,70,60,51,57,53,48,93,81,55,30.06,29.99,29.89,10,10,10,8,1,,0.00,1,,205
2012-10-3,66,62,57,59,57,54,94,87,68,30.20,30.14,30.06,10,7,1,5,1,,0.33,8,Rain,155
2012-10-4,61,59,57,58,56,55,100,91,82,30.20,30.14,30.04,10,6,1,9,1,,0.37,8,Rain,78
2012-10-5,64,60,57,57,56,55,100,93,78,30.03,29.98,29.91,10,4,0,7,1,,0.01,7,Fog,188
2012-10-6,71,60,48,61,55,46,97,89,68,29.89,29.81,29.67,10,4,0,10,1,21,0.13,4,Fog-Rain,199
2012-10-7,57,47,39,47,43,37,97,82,49,30.06,30.00,29.88,10,8,1,6,0,,0.03,3,Rain,190
2012-10-8,57,47,39,44,40,37,93,84,51,30.36,30.18,30.06,10,7,1,6,1,,0.29,2,Rain,247
2012-10-9,55,46,37,43,40,35,93,77,57,30.37,30.30,30.19,10,10,10,9,2,,0.00,5,,73
2012-10-10,60,51,42,57,50,39,94,88,76,30.19,29.86,29.64,10,7,2,9,2,18,0.81,8,Rain-Thunderstorm,173
2012-10-11,55,47,39,46,36,26,86,67,34,30.09,29.93,29.69,10,10,10,13,4,30,0.01,3,,281
2012-10-12,52,44,36,42,32,22,90,63,35,30.30,30.07,29.94,10,10,4,9,3,20,0.13,4,Rain,267
2012-10-13,51,40,28,33,24,18,88,59,27,30.43,30.37,30.32,10,10,10,9,2,17,0.00,0,,287
2012-10-14,53,47,42,49,45,33,94,88,65,30.32,30.08,29.95,10,7,0,10,2,18,0.18,7,Fog-Rain,211
2012-10-15,66,56,46,59,53,44,100,88,73,29.94,29.80,29.60,10,7,1,14,3,24,0.03,5,Rain,204
2012-10-16,60,48,35,58,48,33,94,85,56,29.84,29.59,29.51,10,8,2,8,3,,0.08,6,Rain,242
2012-10-17,61,45,30,40,33,28,92,73,30,30.01,29.94,29.86,10,10,10,6,1,,0.00,0,,295
2012-10-18,61,48,37,48,40,34,93,79,41,30.19,30.12,30.03,10,10,10,9,1,,0.00,1,,174
2012-10-19,64,52,42,60,51,40,94,87,67,30.17,30.04,29.82,10,8,2,12,3,28,0.28,6,Rain,107
2012-10-20,66,58,51,63,59,50,100,94,93,29.82,29.69,29.63,10,2,0,10,4,17,0.17,7,Fog-Rain,182
2012-10-21,63,53,45,54,47,40,100,85,47,29.81,29.74,29.66,10,5,0,6,0,,0.00,5,Fog,220
2012-10-22,59,49,39,43,39,36,89,67,44,29.95,29.86,29.80,10,10,10,10,3,18,0.00,4,,295
2012-10-23,60,47,35,37,32,26,92,64,30,30.14,30.05,29.96,10,10,10,8,1,18,0.00,0,,300
2012-10-24,61,44,28,38,31,23,92,70,25,30.23,30.18,30.12,10,10,10,6,1,,0.00,0,,215
2012-10-25,55,44,32,39,33,28,93,69,37,30.37,30.31,30.25,10,10,10,8,2,,0.00,1,,158
2012-10-26,63,48,35,50,42,33,93,84,58,30.28,30.22,30.15,10,9,0,7,1,,0.00,2,Fog,175
2012-10-27,64,53,41,50,45,38,100,85,58,30.15,30.11,30.06,10,5,0,5,0,,0.00,3,Fog,164
2012-10-28,52,46,41,47,44,38,93,84,76,30.10,30.03,29.92,10,10,4,6,2,,0.00,5,,37
2012-10-29,60,56,51,56,52,48,94,89,81,29.92,29.75,29.54,10,4,2,25,9,45,0.52,8,Rain,66
2012-10-30,63,61,59,61,58,55,94,90,86,29.72,29.65,29.54,10,6,1,23,13,39,0.93,8,Rain-Thunderstorm,102
2012-10-31,63,57,51,58,53,47,94,82,64,29.61,29.57,29.54,10,10,9,10,5,17,0.02,7,Rain,160